Regional Weather Roundup
Issued by NWS Little Rock, AR

Home | Current Version | Previous Version | Text Only | Print | Product List | Glossary Off
Versions: 1 2 3 4 5 6 7 8 9 10 11 12 13 14 15 16 17 18 19 20 21 22 23 24 25 26 27 28 29 30 31 32 33 34 35 36 37 38 39 40 41 42 43 44 45 46 47 48 49 50

000
ASUS44 KLZK 251205
RWRLZK

WEATHER ROUNDUP FOR ARKANSAS
NATIONAL WEATHER SERVICE LITTLE ROCK AR
700 AM CDT MON JUL 25 2016

NOTE: "FAIR" INDICATES FEW OR NO CLOUDS BELOW 12,000 FEET WITH NO
SIGNIFICANT WEATHER AND/OR OBSTRUCTIONS TO VISIBILITY.

ARZ001-003-010-029-251300-
NORTHWEST ARKANSAS

CITY           SKY/WX    TMP DP  RH WIND       PRES   REMARKS
FAYETTEVILLE   PTCLDY    73  71  93 S5        30.03R
6HR MIN TEMP:  72; 6HR MAX TEMP:  76;

FORT SMITH     CLEAR     76  71  85 E3        29.99R
6HR MIN TEMP:  76; 6HR MAX TEMP:  79;

HARRISON       CLEAR     72  70  93 CALM      30.03R
6HR MIN TEMP:  72; 6HR MAX TEMP:  76;

BENTONVILLE    CLOUDY    75  66  73 S5        30.03S
6HR MIN TEMP:  75; 6HR MAX TEMP:  79;

ROGERS         CLOUDY    77  70  79 S6        30.03S
6HR MIN TEMP:  75; 6HR MAX TEMP:  80;

SILOAM SPGS    CLEAR     75  63  64 S5        30.03F
6HR MIN TEMP:  73; 6HR MAX TEMP:  79;

HIGHFILL       CLEAR     75  71  87 CALM      30.02R
6HR MIN TEMP:  74; 6HR MAX TEMP:  80;

SPRINGDALE     PTCLDY    75  70  83 CALM      30.04S
$$

ARZ004-005-016-251300-
NORTH CENTRAL ARKANSAS

CITY           SKY/WX    TMP DP  RH WIND       PRES   REMARKS
BATESVILLE     PTCLDY    73  70  88 CALM      29.99S
6HR MIN TEMP:  73; 6HR MAX TEMP:  75;

FLIPPIN        MOCLDY    73  70  88 S3        29.97F
6HR MIN TEMP:  73; 6HR MAX TEMP:  79;

MTN HOME       CLOUDY    74  73  97 S3        29.99F
6HR MIN TEMP:  73; 6HR MAX TEMP:  76;

$$

ARZ040-041-251300-
WEST CENTRAL ARKANSAS

CITY           SKY/WX    TMP DP  RH WIND       PRES   REMARKS
MENA           MOCLDY    73  73 100 CALM      30.03S
MOUNT IDA      CLEAR     72  71  97 CALM      30.00S
6HR MIN TEMP:  71; 6HR MAX TEMP:  73;

$$

ARZ009-017-025-026-028-251300-
NORTHEAST ARKANSAS

CITY           SKY/WX    TMP DP  RH WIND       PRES   REMARKS
CORNING          N/A     77  77 100 SE3       29.99S
JONESBORO      PTCLDY    78  75  90 S6        29.99S
6HR MIN TEMP:  75; 6HR MAX TEMP:  79;

NEWPORT        CLEAR     77  77 100 SE3       30.00S FOG
6HR MIN TEMP:  76; 6HR MAX TEMP:  80;

WALNUT RIDGE   CLOUDY    77  73  88 S5        29.98S
6HR MIN TEMP:  75; 6HR MAX TEMP:  79;

BLYTHEVILLE    SUNNY     79  77  94 S3        30.00R
6HR MIN TEMP:  78; 6HR MAX TEMP:  80;

$$

ARZ022-023-033-042-044-251300-
CENTRAL ARKANSAS

CITY           SKY/WX    TMP DP  RH WIND       PRES   REMARKS
LITTLE ROCK    CLOUDY    77  71  82 CALM      30.00R
6HR MIN TEMP:  76; 6HR MAX TEMP:  78;

JACKSONVILLE   CLOUDY    76  73  90 E1        30.00R
6HR MIN TEMP:  74; 6HR MAX TEMP:  76;

SEARCY         CLOUDY    74  73  97 S3        30.01S
6HR MIN TEMP:  72; 6HR MAX TEMP:  76;

HOT SPRINGS    CLOUDY    73  72  96 E3        30.02S
6HR MIN TEMP:  73; 6HR MAX TEMP:  74; 6HR PCP: TRACE;

RUSSELLVILLE   CLOUDY    72  71  97 CALM      29.99R
6HR MIN TEMP:  71; 6HR MAX TEMP:  75;

$$

ARZ036-251300-
EAST ARKANSAS

CITY           SKY/WX    TMP DP  RH WIND       PRES   REMARKS
WEST MEMPHIS   CLEAR     78  77  96 S6        29.98F FOG
6HR MIN TEMP:  76; 6HR MAX TEMP:  79; 6HR PCP: TRACE;

$$

ARZ050-053-066-070-073-251300-
SOUTHWEST ARKANSAS

CITY           SKY/WX    TMP DP  RH WIND       PRES   REMARKS
CAMDEN         CLEAR     73  70  88 NW3       30.01R
TEXARKANA      CLOUDY    72  70  93 NE3       30.01R
6HR MIN TEMP:  71; 6HR MAX TEMP:  77;

EL DORADO      PTCLDY    72  71  97 NE3       30.01R
6HR MIN TEMP:  71; 6HR MAX TEMP:  73;

DE QUEEN       FOG       74  74 100 CALM      29.99S VSB 1/2
6HR MIN TEMP:  73; 6HR MAX TEMP:  76;

$$

ARZ056-057-069-251300-
SOUTHEAST ARKANSAS

CITY           SKY/WX    TMP DP  RH WIND       PRES   REMARKS
PINE BLUFF     CLEAR     74  72  93 NW3       30.01R
6HR MIN TEMP:  74; 6HR MAX TEMP:  78;

STUTTGART      PTCLDY    77  72  83 SW6       30.00S
6HR MIN TEMP:  75; 6HR MAX TEMP:  79;

MONTICELLO     PTCLDY    75  73  93 NW3       30.00S
6HR MIN TEMP:  74; 6HR MAX TEMP:  76;


$$





USA.gov is the U.S. government's official web portal to all federal, state and local government web resources and services.